Home > Weather > Oral > Past weeks

Flag for Kazakhstan Weather for the Past 2 Weeks in Oral, Kazakhstan

Now
46 °F

Partly cloudy.


Feels Like: 41 °F
Forecast: 46 / 59 °F
Wind: 13 mph from Northeast

Location: Uralsk

Current Time: Apr 30, 2016 at 3:22:42 AM

Latest Report: Apr 30, 2016 at 2:00 AM


Visibility: N/A

Pressure: 30.15 "Hg

Humidity: 82%

Dew Point: 41 °F

Location of OralLocation

Historic Weather in Oral — Graph

°F

Oral Temperature Yesterday

Maximum temperature yesterday: 55 °F (at 12:00 AM)
Minimum temperature yesterday: 48 °F (at 7:00 AM)
Average temperature yesterday: 52 °F

High & Low Weather Summary for the Past Weeks

 TemperatureHumidityPressure
High77 °F (Apr 16, 5:00 PM)100% (Apr 18, 3:00 AM)30.21 "Hg (Apr 18, 3:00 AM)
Low34 °F (Apr 23, 6:30 AM)29% (Apr 26, 3:00 PM)29.62 "Hg (Apr 20, 5:00 AM)
Average56 °F70%29.90 "Hg
* Reported Apr 15 1:00 AM — Apr 30 1:00 AM, Oral, Weather by CustomWeather, © 2016

Note: Actual official high and low records may vary slightly from our data, if they occured in-between our weather recording intervals... More about our weather records

Advertising

Oral Weather History for the Previous 24 Hours

Scroll right to see more
 ConditionsComfort  
Time TempWeatherWind HumidityBarometerVisibility
1:00 AM
Sat, Apr 30
46 °FClear.15 mph82%30.18 "Hg10 mi
12:00 AM46 °FPartly cloudy.15 mph76%30.18 "HgN/A
11:00 PM
Fri, Apr 29
48 °FClear.15 mph71%30.21 "Hg10 mi
10:30 PM50 °FClear.15 mph67%30.21 "Hg10 mi
10:00 PM50 °FClear.15 mph67%30.21 "Hg10 mi
9:30 PM50 °FClear.15 mph67%30.21 "Hg10 mi
9:00 PM50 °FClear.20 mph67%30.21 "Hg10 mi
8:30 PM52 °FSunny.20 mph62%30.21 "Hg10 mi
8:00 PM52 °FSunny.17 mph62%30.21 "Hg10 mi
7:30 PM52 °FSunny.20 mph62%30.21 "Hg10 mi
7:00 PM54 °FOvercast.24 mph58%30.21 "HgN/A
6:30 PM54 °FOvercast.22 mph58%30.21 "HgN/A
6:00 PM54 °FOvercast.24 mph58%30.21 "HgN/A
5:30 PM54 °FSunny.22 mph58%30.21 "Hg10 mi
5:00 PM55 °FSunny.22 mph55%30.21 "Hg10 mi
4:30 PM55 °FMostly cloudy.22 mph55%30.21 "HgN/A
4:00 PM55 °FMostly cloudy.24 mph55%30.21 "HgN/A
3:30 PM55 °FMore clouds than sun.24 mph55%30.21 "HgN/A
3:00 PM55 °FMore clouds than sun.24 mph59%30.18 "HgN/A
2:30 PM55 °FMostly cloudy.26 mph59%30.18 "HgN/A
2:00 PM54 °FMostly cloudy.22 mph67%30.18 "HgN/A
1:30 PM54 °FMostly cloudy.22 mph67%30.18 "HgN/A
1:00 PM52 °FMostly cloudy.20 mph72%30.18 "HgN/A
12:30 PM52 °FMostly cloudy.20 mph72%30.18 "HgN/A
12:00 PM52 °FMostly cloudy.20 mph72%30.18 "HgN/A
11:30 AM52 °FMostly cloudy.22 mph72%30.15 "HgN/A
11:00 AM52 °FMostly cloudy.22 mph72%30.15 "HgN/A
10:30 AM54 °FPartly sunny.24 mph67%30.15 "HgN/A
9:30 AM52 °FBroken clouds.20 mph72%30.12 "HgN/A
9:00 AM50 °FSunny.20 mph71%30.12 "Hg10 mi
8:30 AM50 °FBroken clouds.20 mph71%30.12 "HgN/A
7:30 AM48 °FPartly sunny.15 mph76%30.09 "HgN/A
7:00 AM48 °FPartly sunny.17 mph71%30.09 "HgN/A
6:30 AM50 °FMostly cloudy.17 mph67%30.09 "HgN/A
6:00 AM50 °FMostly cloudy.20 mph67%30.09 "HgN/A
5:30 AM50 °FMostly cloudy.20 mph67%30.09 "HgN/A
5:00 AM50 °FMostly cloudy.17 mph67%30.09 "HgN/A
4:30 AM50 °FMostly cloudy.20 mph67%30.09 "HgN/A
4:00 AM50 °FMostly cloudy.20 mph67%30.09 "HgN/A
3:00 AM52 °FMostly cloudy.20 mph62%30.09 "HgN/A
Weather by CustomWeather, © 2016

See weather overviewHow to use our weather pages